Regional Weather Roundup
Issued by NWS Goodland, KS

Home | Current Version | Previous Version | Graphics & Text | Print | Product List | Glossary On
Versions: 1 2 3 4 5 6 7 8 9 10 11 12 13 14 15 16 17 18 19 20 21 22 23 24 25 26 27 28 29 30 31 32 33 34 35 36 37 38 39 40 41 42 43 44 45 46 47 48 49 50
573
ASUS43 KGLD 060859
RWRGLD

GOODLAND FORECAST AREA HOURLY WEATHER ROUNDUP
NATIONAL WEATHER SERVICE GOODLAND KS
200 AM MST TUE DEC 06 2016

...OFFICIAL OBSERVATIONS...

CITY           SKY/WX    TMP DP  RH WIND       PRES   REMARKS
GOODLAND KS    CLEAR     14   7  73 NW10      30.00R WCI   1
HILL CITY KS   CLEAR     24  16  71 N9        30.01R
IMPERIAL NEB   CLEAR     19   8  62 NW14      30.01R WCI   6
MCCOOK NEB     CLEAR     20  10  65 NW8       30.02R
AKRON CO       CLEAR      9   3  77 N9        29.97R
BURLINGTON CO  CLEAR     12   4  70 NW6       29.98R
LIMON CO       CLOUDY     9   5  84 NW6       29.95R
$$

...UNOFFICIAL OBSERVATIONS...

CITY           SKY/WX    TMP DP  RH WIND       PRES   REMARKS
COLBY KS       CLEAR     21  12  68 NW17      30.00R WCI   7
LENORA KS        N/A     22  32 100 MISG        N/A
NORTON KS      CLEAR     21  10  63 NW7       29.99R
SHARON SPRINGS   N/A     19   9  65 N14         N/A  WCI   6
TRENTON NEB      N/A     19  32 100 NW7         N/A
KIT CARSON CO    N/A     16   7  66 MISG        N/A
YUMA CO        FAIR       9   5  85 W9        30.00R
$$




USA.gov is the U.S. government's official web portal to all federal, state and local government web resources and services.